Location: Newark
(49.5647°N, 8.2922°E)
Time: 14:40:54
(UTC+00:00)

Transit 2A - Pass Details

Date: 18 February 2020
Orbit: 597 x 962 km, 66.7° (Epoch: 04 April)

Event Time Altitude Azimuth Distance (km) Brightness Sun altitude
Rises 21:27:48 0° 325° (NW) 3,027 9.9 -43.2°
Enters shadow 21:29:45 - 327° (NNW) 2,273 9.0 -43.4°
Reaches altitude 10° 21:30:03 10° 328° (NNW) 2,157 - -43.4°
Maximum altitude 21:34:56 66° 51° (NE) 817 - -44.0°
Drops below altitude 10° 21:40:21 10° 134° (SE) 2,385 - -44.6°
Sets 21:42:56 0° 137° (SE) 3,373 - -44.9°
